Theta_e
300 300 297 298 298 297 295 294 293 293 293 291 290 290 290 289 287 287 289 288 287 287 285 285 284 284 283 283 283 283 282 282 282 281 281 282 284 284 284 283 284 285 288
300 301 295 295 297 297 295 294 293 292 293 293 293 291 291 286 289 288 288 288 287 286 285 284 283 283 282 282 282 282 281 281 281 279 279 278 280 283 283 283 284 283 285
299 301 294 294 296 296 294 293 293 292 293 293 291 286 286 285 284 286 287 287 287 286 285 284 283 282 282 281 281 281 281 280 280 280 279 277 276 278 281 282 283 283 283
300 300 293 292 294 296 294 293 293 292 293 292 290 290 289 288 289 289 286 285 286 285 285 284 283 282 282 281 281 282 280 280 279 280 282 280 279 277 276 281 281 282 283
297 297 294 295 295 295 293 293 292 292 292 291 291 290 289 289 285 284 284 284 284 284 284 283 282 281 281 281 281 280 280 280 279 279 279 279 278 279 277 275 278 281 281
300 294 293 293 292 291 292 292 291 291 291 290 290 289 289 285 283 283 284 284 284 283 283 283 281 281 281 281 281 280 280 280 279 280 279 279 278 277 277 276 276 277 279
298 290 291 291 291 290 290 290 290 289 290 289 289 289 289 286 286 285 285 284 283 282 282 282 281 281 280 280 280 279 279 279 279 279 278 279 279 280 279 278 276 275 277
292 292 292 292 290 290 290 290 289 289 289 288 289 289 289 288 287 285 286 285 285 284 283 282 281 280 280 279 279 279 278 278 279 277 278 279 279 280 279 278 276 273 274
291 292 290 290 290 290 290 290 289 290 289 289 289 289 288 288 286 285 285 285 284 284 282 282 280 280 279 279 278 278 277 278 278 278 278 277 278 279 279 279 278 275 270
290 291 290 289 289 289 289 289 289 289 289 289 289 288 287 287 287 284 283 283 283 282 281 280 280 278 278 278 277 277 277 277 277 278 277 277 277 278 278 278 278 277 274
290 291 291 290 289 288 288 288 288 288 288 288 288 288 287 286 286 283 283 282 281 281 280 280 279 278 277 277 276 276 276 276 276 276 276 276 277 276 276 276 276 275 275
291 291 291 291 289 288 288 289 289 288 289 288 287 287 285 284 285 283 282 281 281 280 280 279 278 277 277 276 276 275 276 275 275 275 275 275 276 274 275 275 274 274 274
290 291 292 291 291 291 290 289 289 289 289 287 285 284 283 283 284 283 282 281 280 279 279 278 277 276 276 275 275 275 274 274 274 274 274 274 274 273 274 273 273 273 274
295 298 295 292 292 292 291 289 289 288 286 285 285 284 284 284 284 283 280 280 279 278 278 277 277 276 275 275 275 275 273 273 273 274 274 274 274 273 274 274 274 274 273
294 294 293 293 292 290 290 289 289 288 287 286 285 285 284 284 283 280 279 279 278 278 277 276 275 275 274 274 274 274 273 273 273 274 274 275 275 276 276 275 274 274 273
298 298 295 293 291 292 292 288 289 287 286 286 285 285 283 282 281 279 279 278 277 276 276 275 274 273 274 279 279 275 273 273 273 274 275 275 275 275 277 278 279 278 275
289 290 292 292 291 290 288 287 288 285 284 285 285 283 282 280 279 278 278 277 276 275 275 274 274 273 273 280 280 278 275 274 275 275 274 274 275 275 274 276 277 278 278
288 288 288 289 290 288 287 285 282 282 284 284 283 281 279 279 277 276 276 276 275 274 274 273 273 273 274 280 281 280 276 275 275 274 275 274 274 274 275 275 274 275 275
288 288 286 286 287 286 283 283 280 281 281 281 281 279 279 277 275 275 275 275 274 274 273 274 274 274 273 280 281 279 275 275 275 274 275 274 274 276 277 275 273 274 275
287 285 286 284 285 286 280 280 279 278 278 278 278 276 278 277 275 276 275 275 274 274 274 273 273 272 270 279 280 279 273 273 273 274 274 276 275 276 277 275 274 271 272
286 287 286 284 283 281 278 278 276 276 276 275 275 275 276 276 276 275 275 274 274 273 272 272 271 271 270 275 279 279 273 272 272 272 273 273 275 276 278 278 274 272 274
284 285 285 285 286 280 276 278 276 276 273 273 273 274 274 275 274 273 273 272 272 271 270 270 269 270 270 272 278 279 278 276 271 271 272 272 274 276 276 275 274 275 274
283 284 283 284 285 282 278 276 277 273 273 272 274 273 274 274 273 272 272 271 272 271 270 270 269 269 270 271 277 279 279 278 273 272 272 274 273 272 271 271 273 271 267
278 280 280 281 281 285 280 279 278 275 274 275 274 273 273 272 272 272 272 271 270 270 269 269 268 269 269 270 273 273 274 276 273 272 268 268 269 269 269 267 268 267 267
276 276 277 278 278 281 283 283 279 276 275 275 273 272 273 272 271 272 271 272 272 272 270 270 270 269 268 270 272 271 269 268 270 261 258 261 263 264 264 265 265 266 266
272 270 270 272 273 275 277 281 281 276 275 273 272 271 271 270 270 270 270 276 275 276 276 275 273 272 273 274 275 275 275 275 272 255 254 259 261 261 262 262 262 263 264
Wind_Speed
24 12 11 14 14 14 16 19 19 18 15 10 10 8 12 8 5 6 9 9 8 7 7 5 5 5 5 5 4 2 3 4 4 3 4 4 4 3 2 3 3 5 5
20 17 10 11 17 20 21 20 21 20 17 13 11 7 9 4 7 7 8 10 10 8 7 7 6 6 5 5 4 4 2 2 4 3 1 5 5 4 4 3 5 5 3
21 21 10 13 14 17 20 21 23 22 20 17 9 4 5 3 4 7 7 8 10 8 8 8 6 6 5 5 5 5 5 4 2 5 4 2 2 4 4 4 3 5 4
21 18 10 10 14 19 17 19 19 20 18 17 15 17 11 11 10 9 5 6 9 9 8 8 7 7 4 6 5 4 4 5 4 3 2 2 3 2 6 3 4 4 4
15 19 15 14 15 14 17 17 18 18 18 18 17 15 13 9 3 5 9 8 8 9 9 9 8 7 5 6 7 6 6 3 4 4 3 1 1 2 3 6 7 8 2
21 11 9 7 8 9 13 15 18 18 17 17 16 18 18 9 7 8 10 8 7 7 9 9 8 7 6 6 5 5 6 5 4 3 4 4 4 3 3 4 6 9 10
16 5 9 10 12 16 16 15 18 18 17 19 19 19 18 16 17 13 12 12 9 8 11 10 9 7 7 7 6 6 5 5 4 5 4 3 3 2 2 4 8 5 3
8 10 11 10 11 14 14 15 17 17 18 18 20 16 16 11 11 13 10 11 11 11 12 11 10 9 9 7 7 5 5 5 4 5 3 3 3 3 3 4 5 9 4
9 10 6 8 10 14 18 18 16 15 17 18 15 16 14 15 14 13 11 10 9 9 10 12 11 10 9 9 8 6 6 6 5 5 5 3 3 3 3 3 3 4 6
10 8 5 8 7 7 8 10 13 18 14 15 15 15 15 15 13 9 13 12 10 11 12 13 12 11 10 9 9 6 5 6 4 4 5 4 3 3 3 4 4 5 7
10 8 7 6 6 6 8 11 12 13 12 14 15 15 14 14 13 12 12 12 11 13 13 14 13 13 12 10 8 7 7 7 6 4 5 4 4 3 3 4 5 6 7
9 8 7 7 8 8 10 15 15 16 19 16 14 15 11 12 14 13 14 13 14 13 14 14 14 13 11 10 10 9 8 8 7 7 6 5 4 5 5 5 7 8 8
8 6 6 9 10 11 13 14 13 17 13 11 13 11 12 14 17 16 14 15 14 13 13 14 15 14 13 12 10 9 9 8 7 7 6 6 6 7 6 7 7 6 8
12 16 12 10 9 10 12 12 12 14 11 12 14 16 17 18 16 14 14 15 14 15 14 14 14 14 13 12 11 11 9 8 8 8 8 7 8 8 8 7 8 7 8
12 11 10 10 10 9 11 11 15 12 14 15 16 19 16 14 14 14 15 15 15 15 16 14 12 13 12 10 12 11 10 10 8 7 7 7 8 13 11 6 7 8 8
13 16 18 15 14 12 13 9 11 12 13 15 17 15 13 14 15 14 15 15 15 14 14 14 14 13 9 20 21 14 9 9 9 8 7 7 7 10 15 15 16 14 10
16 20 15 13 12 12 9 10 12 8 13 15 14 14 14 15 15 14 14 15 15 14 14 13 13 13 10 22 21 19 9 9 8 8 7 5 6 7 7 11 17 18 21
17 16 15 15 15 11 11 9 4 8 11 12 11 12 14 14 14 15 15 14 13 15 15 13 13 12 10 22 22 21 8 7 7 7 5 6 7 8 9 9 10 12 13
14 13 9 8 11 13 13 11 4 6 7 8 11 12 13 13 14 15 15 13 13 13 13 14 16 16 12 23 23 18 9 8 8 5 6 6 8 12 15 11 10 13 12
14 16 15 10 11 13 7 8 6 2 2 3 3 4 9 11 13 14 14 12 12 11 10 10 9 10 10 22 22 17 7 9 6 5 6 12 9 16 16 11 9 12 11
18 18 15 11 11 12 8 6 6 4 2 5 6 7 6 8 8 10 9 11 11 11 10 11 9 9 10 12 22 21 10 8 6 6 5 5 11 14 17 18 9 10 14
15 16 18 16 12 7 6 12 7 3 2 7 6 6 8 7 8 11 10 11 12 12 11 12 10 9 10 14 21 24 19 16 7 7 5 5 9 13 15 13 17 20 18
15 15 16 19 16 7 6 9 6 1 1 5 8 9 9 8 9 11 12 10 12 11 11 11 10 9 8 9 23 24 21 18 7 6 7 7 7 7 7 13 17 13 7
16 16 17 18 17 14 6 8 6 5 4 6 7 7 13 13 12 9 10 10 11 10 10 12 11 10 9 9 9 7 9 12 7 6 2 2 4 3 4 5 9 7 7
15 16 16 17 19 17 16 12 7 7 8 8 7 8 9 11 11 13 13 13 13 16 15 13 13 14 12 11 13 9 3 3 4 5 3 1 1 2 2 4 6 6 8
16 16 19 20 19 16 18 18 8 9 10 10 8 9 9 9 10 9 6 18 17 24 22 18 12 9 12 22 22 20 15 14 11 4 2 0 2 3 4 4 6 7 9
Wind_Direction
252 246 209 201 195 191 186 185 178 180 171 173 174 185 197 192 189 180 183 176 178 172 165 158 158 161 157 159 147 118 64 21 336 355 338 335 352 56 40 324 14 8 17
258 251 208 187 189 192 191 184 186 178 183 181 183 185 177 184 190 188 187 184 180 174 168 163 171 167 147 144 152 154 131 73 8 73 125 1 334 340 8 4 355 16 27
249 254 208 200 196 195 190 186 185 183 184 178 158 105 94 74 163 197 191 191 179 173 167 169 163 166 154 166 169 160 162 145 69 60 125 7 308 318 329 349 342 354 338
252 257 209 200 195 203 191 188 183 181 184 172 175 183 189 191 203 196 177 172 179 179 175 171 166 164 165 168 167 169 167 139 144 93 106 140 153 355 322 302 294 331 318
245 242 219 208 204 184 185 183 180 181 181 181 183 186 197 200 139 139 155 177 185 182 179 175 168 171 170 170 170 170 172 154 136 143 144 103 137 172 205 305 311 308 227
260 240 214 179 180 172 176 180 181 184 181 180 185 193 197 171 159 164 177 183 185 188 186 181 173 168 170 176 175 171 170 164 134 141 163 165 160 156 187 256 265 282 311
253 243 190 192 177 181 178 177 180 187 182 183 191 194 196 188 188 182 182 175 181 190 193 180 176 177 173 170 160 164 171 171 167 168 178 173 181 175 194 247 278 269 274
239 215 209 191 182 183 184 182 184 187 189 191 199 198 200 195 196 189 189 190 193 193 179 184 177 167 171 167 164 160 166 171 172 175 185 175 187 188 211 241 292 305 264
258 243 219 191 182 183 188 189 187 196 195 197 194 199 196 198 198 189 187 188 182 174 171 177 174 171 170 169 166 169 172 172 175 174 179 185 185 199 221 232 229 257 303
289 271 230 202 199 188 181 187 190 201 196 195 199 197 197 200 195 178 187 184 174 165 168 173 170 167 168 171 171 171 172 168 172 164 174 185 182 205 216 228 229 230 255
285 247 240 228 205 182 184 195 198 198 200 197 200 200 197 190 190 187 187 179 166 170 174 175 169 171 173 174 169 168 170 173 175 166 174 183 177 201 219 226 232 238 243
261 280 228 200 209 206 199 206 200 202 204 197 194 202 187 182 188 190 185 172 175 176 172 170 170 170 170 170 176 176 178 173 172 176 178 186 201 212 218 231 239 244 246
289 262 253 236 223 217 217 216 210 217 207 186 188 187 187 189 197 193 182 175 171 174 168 169 172 170 173 170 175 176 176 174 174 170 179 185 191 226 224 225 237 247 260
268 272 271 243 234 228 218 207 215 210 196 195 191 198 198 199 197 189 176 174 172 168 174 179 174 171 167 171 173 174 175 175 177 180 189 194 206 223 231 237 246 254 261
275 282 281 273 248 225 233 225 222 201 194 199 202 209 204 197 187 177 173 170 172 177 176 168 171 168 168 170 172 170 174 181 177 183 196 216 222 237 241 244 249 253 258
275 271 261 255 254 249 242 228 229 218 196 203 209 203 190 182 183 177 173 170 175 173 168 175 168 165 172 182 183 173 174 177 178 186 201 217 229 246 258 262 271 268 267
6 348 318 283 273 264 242 243 233 196 192 205 205 192 181 181 178 173 171 175 174 165 172 169 165 168 166 184 188 184 178 178 183 191 203 218 238 238 251 267 275 279 281
345 340 336 335 328 305 296 278 240 208 204 203 188 180 177 177 169 168 174 171 170 173 169 168 165 161 174 186 189 191 164 176 184 198 205 234 250 250 260 259 264 265 264
312 306 292 302 311 317 321 306 253 197 175 192 193 181 176 171 168 174 174 167 168 173 172 169 167 174 173 185 187 181 168 182 197 191 229 235 249 259 280 274 275 275 273
319 318 313 314 321 320 319 306 295 258 237 97 131 157 168 172 178 172 170 164 168 164 161 162 167 158 158 186 186 177 164 178 175 196 221 243 247 272 281 279 284 286 288
323 324 320 316 311 316 320 286 279 262 143 106 134 137 145 157 163 153 158 152 157 150 156 148 145 149 163 197 187 187 180 177 173 187 189 209 255 277 284 300 292 285 289
313 317 310 309 317 308 309 300 293 207 157 134 122 136 129 140 150 152 154 152 155 155 157 154 154 159 168 192 197 198 183 184 176 183 189 199 255 288 299 305 298 300 312
314 310 306 306 313 303 243 270 276 244 151 141 164 151 142 149 157 159 160 163 167 170 168 168 169 171 171 185 201 195 194 190 164 156 190 233 282 283 311 300 306 313 298
310 308 304 303 302 302 261 248 254 171 191 222 196 177 165 168 172 170 171 173 176 178 179 178 173 164 170 180 193 198 184 187 189 175 116 192 265 274 284 301 295 293 291
316 306 306 308 303 308 304 288 237 180 206 223 211 196 189 190 184 186 185 187 194 186 178 181 170 163 175 183 177 177 177 134 191 101 64 28 279 299 291 280 283 294 291
306 305 298 293 297 305 305 304 278 204 215 211 204 208 191 189 183 184 190 212 193 193 194 188 166 154 163 169 169 174 185 185 148 48 88 7 297 292 311 297 302 296 292